Time,TemperatureF,DewpointF,PressureIn,WindDirection,WindDirectionDegrees,WindSpeedMPH,WindSpeedGustMPH,Humidity,HourlyPrecipIn,Conditions,Clouds,dailyrainin,SoftwareType,DateUTC
2013-02-05 01:00:00,37.0,-99.9,-100.00,SSW,213,5.0,-999.0,-999,-99.99,,,-99.99,,2013-02-05 08:00:00,
2013-02-05 01:52:00,37.0,-99.9,-100.00,SSW,213,5.0,-999.0,-999,-99.99,,,-99.99,,2013-02-05 08:52:00,
2013-02-05 02:00:00,38.0,-99.9,-100.00,South,187,7.0,-999.0,-999,-99.99,,,-99.99,,2013-02-05 09:00:00,
2013-02-05 02:52:00,38.0,-99.9,-100.00,South,187,7.0,-999.0,-999,-99.99,,,-99.99,,2013-02-05 09:52:00,
2013-02-05 03:00:00,38.0,-99.9,-100.00,South,178,6.0,-999.0,-999,-99.99,,,-99.99,,2013-02-05 10:00:00,
2013-02-05 03:52:00,38.0,-99.9,-100.00,South,178,6.0,-999.0,-999,-99.99,,,-99.99,,2013-02-05 10:52:00,
2013-02-05 04:00:00,36.0,-99.9,-100.00,SSE,153,4.0,-999.0,-999,-99.99,,,-99.99,,2013-02-05 11:00:00,
2013-02-05 04:53:00,36.0,-99.9,-100.00,SSE,153,4.0,-999.0,-999,-99.99,,,-99.99,,2013-02-05 11:53:00,
2013-02-05 05:00:00,34.0,-99.9,-100.00,ENE,66,2.0,-999.0,-999,-99.99,,,-99.99,,2013-02-05 12:00:00,
2013-02-05 05:52:00,34.0,-99.9,-100.00,ENE,66,2.0,-999.0,-999,-99.99,,,-99.99,,2013-02-05 12:52:00,
2013-02-05 06:00:00,34.0,-99.9,-100.00,SE,133,3.0,-999.0,-999,-99.99,,,-99.99,,2013-02-05 13:00:00,
2013-02-05 06:52:00,34.0,-99.9,-100.00,SE,133,3.0,-999.0,-999,-99.99,,,-99.99,,2013-02-05 13:52:00,
2013-02-05 07:00:00,37.0,-99.9,-100.00,South,185,3.0,-999.0,-999,-99.99,,,-99.99,,2013-02-05 14:00:00,
2013-02-05 07:52:00,37.0,-99.9,-100.00,South,185,3.0,-999.0,-999,-99.99,,,-99.99,,2013-02-05 14:52:00,
2013-02-05 08:00:00,38.0,-99.9,-100.00,SW,228,4.0,-999.0,-999,-99.99,,,-99.99,,2013-02-05 15:00:00,
2013-02-05 08:52:00,38.0,-99.9,-100.00,SW,228,4.0,-999.0,-999,-99.99,,,-99.99,,2013-02-05 15:52:00,
2013-02-05 09:52:00,46.0,-99.9,-100.00,NW,317,1.0,-999.0,-999,-99.99,,,-99.99,,2013-02-05 16:52:00,
2013-02-05 10:00:00,47.0,-99.9,-100.00,SSE,164,2.0,-999.0,-999,-99.99,,,-99.99,,2013-02-05 17:00:00,
2013-02-05 10:53:00,47.0,-99.9,-100.00,SSE,164,2.0,-999.0,-999,-99.99,,,-99.99,,2013-02-05 17:53:00,
2013-02-05 11:00:00,51.0,-99.9,-100.00,NE,51,2.0,-999.0,-999,-99.99,,,-99.99,,2013-02-05 18:00:00,
2013-02-05 11:52:00,51.0,-99.9,-100.00,NE,51,2.0,-999.0,-999,-99.99,,,-99.99,,2013-02-05 18:52:00,
2013-02-05 12:00:00,54.0,-99.9,-100.00,NE,40,3.0,-999.0,-999,-99.99,,,-99.99,,2013-02-05 19:00:00,
2013-02-05 12:52:00,54.0,-99.9,-100.00,NE,40,3.0,-999.0,-999,-99.99,,,-99.99,,2013-02-05 19:52:00,
2013-02-05 13:00:00,60.0,-99.9,-100.00,SE,146,4.0,-999.0,-999,-99.99,,,-99.99,,2013-02-05 20:00:00,
2013-02-05 13:52:00,60.0,-99.9,-100.00,SE,146,4.0,-999.0,-999,-99.99,,,-99.99,,2013-02-05 20:52:00,
2013-02-05 14:00:00,61.0,-99.9,-100.00,SE,135,3.0,-999.0,-999,-99.99,,,-99.99,,2013-02-05 21:00:00,
2013-02-05 14:52:00,61.0,-99.9,-100.00,SE,135,3.0,-999.0,-999,-99.99,,,-99.99,,2013-02-05 21:52:00,
2013-02-05 15:00:00,62.0,-99.9,-100.00,SSE,153,4.0,-999.0,-999,-99.99,,,-99.99,,2013-02-05 22:00:00,
2013-02-05 15:52:00,62.0,-99.9,-100.00,SSE,153,4.0,-999.0,-999,-99.99,,,-99.99,,2013-02-05 22:52:00,
2013-02-05 16:00:00,62.0,-99.9,-100.00,SE,132,4.0,-999.0,-999,-99.99,,,-99.99,,2013-02-05 23:00:00,
2013-02-05 16:53:00,62.0,-99.9,-100.00,SE,132,4.0,-999.0,-999,-99.99,,,-99.99,,2013-02-05 23:53:00,
2013-02-05 17:00:00,59.0,-99.9,-100.00,SSE,147,5.0,-999.0,-999,-99.99,,,-99.99,,2013-02-06 00:00:00,
2013-02-05 17:53:00,59.0,-99.9,-100.00,SSE,147,5.0,-999.0,-999,-99.99,,,-99.99,,2013-02-06 00:53:00,
2013-02-05 18:00:00,55.0,-99.9,-100.00,SSE,152,5.0,-999.0,-999,-99.99,,,-99.99,,2013-02-06 01:00:00,
2013-02-05 18:53:00,55.0,-99.9,-100.00,SSE,152,5.0,-999.0,-999,-99.99,,,-99.99,,2013-02-06 01:53:00,
2013-02-05 19:00:00,52.0,-99.9,-100.00,SSE,166,3.0,-999.0,-999,-99.99,,,-99.99,,2013-02-06 02:00:00,
2013-02-05 19:53:00,52.0,-99.9,-100.00,SSE,166,3.0,-999.0,-999,-99.99,,,-99.99,,2013-02-06 02:53:00,
2013-02-05 20:00:00,50.0,-99.9,-100.00,South,180,4.0,-999.0,-999,-99.99,,,-99.99,,2013-02-06 03:00:00,
2013-02-05 20:53:00,50.0,-99.9,-100.00,South,180,4.0,-999.0,-999,-99.99,,,-99.99,,2013-02-06 03:53:00,
2013-02-05 21:00:00,46.0,-99.9,-100.00,NW,304,2.0,-999.0,-999,-99.99,,,-99.99,,2013-02-06 04:00:00,
2013-02-05 21:52:00,46.0,-99.9,-100.00,NW,304,2.0,-999.0,-999,-99.99,,,-99.99,,2013-02-06 04:52:00,
2013-02-05 22:00:00,47.0,-99.9,-100.00,South,178,3.0,-999.0,-999,-99.99,,,-99.99,,2013-02-06 05:00:00,
2013-02-05 22:53:00,47.0,-99.9,-100.00,South,178,3.0,-999.0,-999,-99.99,,,-99.99,,2013-02-06 05:53:00,
2013-02-05 23:00:00,47.0,-99.9,-100.00,SSW,195,4.0,-999.0,-999,-99.99,,,-99.99,,2013-02-06 06:00:00,
2013-02-05 23:52:00,47.0,-99.9,-100.00,SSW,195,4.0,-999.0,-999,-99.99,,,-99.99,,2013-02-06 06:52:00,